| time (UTC) | temp F | wind direction | speed knots | gust knots | rain 1hr in | rain 24hr in | rain mn in | humidity % | barometer mb |
| 20260831213017 | 92 | 225 | 5.2 | 9.6 | 0.00 | 0.00 | 0.00 | 60 | 993.8 |
| 20260831210017 | 92 | 225 | 5.2 | 9.6 | 0.00 | 0.00 | 0.00 | 60 | 994.0 |
| 20260831203017 | 91 | 225 | 5.2 | 9.6 | 0.00 | 0.00 | 0.00 | 60 | 994.0 |
| 20260831200017 | 90 | 225 | 6.1 | 12.2 | 0.00 | 0.00 | 0.00 | 62 | 994.0 |
| 20260831193037 | 92 | 225 | 7.0 | 13.0 | 0.00 | 0.00 | 0.00 | 58 | 994.1 |
| 20260831190017 | 91 | 225 | 7.0 | 13.9 | 0.00 | 0.00 | 0.00 | 57 | 994.0 |
| 20260831183018 | 91 | 225 | 7.8 | 13.0 | 0.00 | 0.00 | 0.00 | 58 | 994.3 |
| 20260831180017 | 90 | 225 | 7.0 | 13.9 | 0.00 | 0.00 | 0.00 | 58 | 994.3 |
| 20260831173017 | 90 | 225 | 7.8 | 13.0 | 0.00 | 0.00 | 0.00 | 62 | 994.4 |
| 20260831170017 | 88 | 225 | 7.0 | 13.0 | 0.00 | 0.00 | 0.00 | 63 | 994.6 |
| 20260831163017 | 87 | 225 | 7.8 | 13.0 | 0.00 | 0.00 | 0.00 | 65 | 994.8 |
| 20260831160017 | 85 | 225 | 8.7 | 14.8 | 0.00 | 0.00 | 0.00 | 64 | 994.7 |
| 20260831153018 | 85 | 225 | 9.6 | 19.1 | 0.00 | 0.00 | 0.00 | 64 | 994.5 |
| 20260831150017 | 84 | 225 | 9.6 | 17.4 | 0.00 | 0.00 | 0.00 | 65 | 994.2 |
| 20260831143017 | 82 | 203 | 9.6 | 17.4 | 0.00 | 0.00 | 0.00 | 67 | 994.2 |
| 20260831140037 | 80 | 203 | 9.6 | 18.2 | 0.00 | 0.00 | 0.00 | 69 | 994.2 |
| 20260831133017 | 79 | 203 | 9.6 | 17.4 | 0.00 | 0.00 | 0.00 | 69 | 994.0 |
| 20260831130017 | 79 | 203 | 8.7 | 17.4 | 0.00 | 0.00 | 0.00 | 71 | 994.0 |
| 20260831123017 | 78 | 203 | 8.7 | 16.5 | 0.00 | 0.00 | 0.00 | 71 | 994.1 |
| 20260831120017 | 78 | 203 | 8.7 | 18.2 | 0.00 | 0.00 | 0.00 | 71 | 993.9 |
| 20260831113039 | 78 | 203 | 7.8 | 16.5 | 0.00 | 0.00 | 0.00 | 71 | 993.8 |
| 20260831110017 | 78 | 203 | 7.8 | 14.8 | 0.00 | 0.00 | 0.00 | 72 | 993.8 |
| 20260831103019 | 76 | 180 | 6.1 | 11.3 | 0.00 | 0.00 | 0.00 | 75 | 993.9 |
| 20260831100017 | 76 | 180 | 7.0 | 12.2 | 0.00 | 0.00 | 0.00 | 75 | 993.8 |
| 20260831093017 | 75 | 180 | 5.2 | 9.6 | 0.00 | 0.00 | 0.00 | 77 | 993.9 |
| 20260831090017 | 75 | 180 | 5.2 | 9.6 | 0.00 | 0.00 | 0.00 | 79 | 993.8 |
| 20260831083352 | 74 | 180 | 5.2 | 8.7 | 0.00 | 0.00 | 0.00 | 80 | 993.6 |
| 20260831073017 | 75 | 158 | 5.2 | 9.6 | 0.00 | 0.00 | 0.00 | 78 | 993.5 |
| 20260831070017 | 76 | 158 | 5.2 | 9.6 | 0.00 | 0.00 | 0.00 | 77 | 993.6 |
| 20260831063017 | 76 | 180 | 5.2 | 9.6 | 0.00 | 0.00 | 0.00 | 77 | 993.7 |
| 20260831060017 | 77 | 158 | 5.2 | 12.2 | 0.00 | 0.00 | 0.00 | 77 | 993.9 |
| 20260831053017 | 77 | 158 | 6.1 | 9.6 | 0.00 | 0.00 | 0.00 | 76 | 993.9 |
| 20260831050038 | 77 | 158 | 7.0 | 12.2 | 0.00 | 0.00 | 0.00 | 76 | 993.7 |
| 20260831043017 | 78 | 158 | 7.0 | 12.2 | 0.00 | 0.00 | 0.00 | 76 | 993.9 |
| 20260831040017 | 78 | 158 | 7.0 | 11.3 | 0.00 | 0.00 | 0.00 | 77 | 994.1 |
| 20260831033017 | 78 | 158 | 6.1 | 11.3 | 0.00 | 0.00 | 0.00 | 78 | 994.2 |
| 20260831030017 | 79 | 135 | 5.2 | 9.6 | 0.00 | 0.00 | 0.00 | 80 | 994.2 |
| 20260831023019 | 79 | 135 | 4.3 | 9.6 | 0.00 | 0.00 | 0.00 | 80 | 994.2 |
| 20260831020017 | 80 | 135 | 4.3 | 7.8 | 0.00 | 0.00 | 0.00 | 81 | 994.0 |
| 20260831013039 | 80 | 135 | 5.2 | 7.8 | 0.00 | 0.00 | 0.00 | 83 | 993.5 |
| 20260831010017 | 81 | 135 | 5.2 | 9.6 | 0.00 | 0.00 | 0.00 | 81 | 993.3 |
| 20260831003017 | 82 | 113 | 4.3 | 9.6 | 0.00 | 0.00 | 0.00 | 79 | 993.4 |
| 20260831000017 | 85 | 135 | 5.2 | 9.6 | 0.00 | 0.00 | 0.00 | 75 | 993.5 |
| 20260830233018 | 86 | 135 | 6.1 | 9.6 | 0.00 | 0.00 | 0.00 | 73 | 993.9 |
| 20260830230017 | 86 | 135 | 6.1 | 11.3 | 0.00 | 0.00 | 0.00 | 71 | 993.5 |
| 20260830223017 | 86 | 135 | 6.1 | 13.0 | 0.00 | 0.00 | 0.00 | 67 | 993.4 |
| 20260830220017 | 86 | 135 | 7.0 | 12.2 | 0.00 | 0.00 | 0.00 | 70 | 993.6 |